Regional Weather Roundup
Issued by NWS

Home | Current Version | Previous Version | Graphics & Text | Print | Product List | Glossary On
Versions: 1 2 3 4 5 6 7 8 9 10 11 12 13 14 15 16 17 18 19 20 21 22 23 24 25 26 27 28 29 30 31 32 33 34 35 36 37 38 39 40 41 42 43 44 45 46 47 48 49 50
000
ASUS43 KLOT 280458
RWRIL

ILLINOIS REGIONAL WEATHER ROUNDUP
NATIONAL WEATHER SERVICE CHICAGO/ROMEOVILLE IL
1100 PM CST SAT DEC 27 2014

NOTE: "FAIR" INDICATES FEW OR NO CLOUDS BELOW 12,000 FEET WITH NO
SIGNIFICANT WEATHER AND/OR OBSTRUCTIONS TO VISIBILITY.

* THESE STATIONS ARE NOT UNDER NWS QUALITY CONTROL. THEY ALSO MAY NOT
  REPORT WEATHER SUCH AS PRECIPITATION OR FOG.

ILZ001-002-007-009-015-016-024-280600-
NORTHWEST ILLINOIS

CITY           SKY/WX    TMP DP  RH WIND       PRES   REMARKS
MOLINE         CLEAR     25  19  78 NW15      30.19F WCI  13
$$

ILZ003-004-008-010-011-017-018-280600-
NORTH CENTRAL ILLINOIS

CITY           SKY/WX    TMP DP  RH WIND       PRES   REMARKS
ROCKFORD       NOT AVBL
$$

ILZ005-006-012>014-019>023-280600-
NORTHEAST ILLINOIS

CITY           SKY/WX    TMP DP  RH WIND       PRES   REMARKS
CHICAGO-OHARE  CLOUDY    31  24  75 W10       30.10F WCI  22
CHICAGO-MIDWAY NOT AVBL
AURORA         CLOUDY    31  26  82 W13       30.12F WCI  21
WAUKEGAN       NOT AVBL
DUPAGE AIRPORT CLOUDY    31  24  75 NW13      30.11S WCI  21
WHEELING       CLOUDY    32  25  75 NW9       30.12S WCI  24
NORTHERLY ISL    N/A     33  25  72 NW12        N/A  WCI  24
$$

LMZ740>746-280600-
SOUTHERN LAKE MICHIGAN

STATION/POSITION SKY/WX   TEMP    WIND        PRES    VSBY  WAVE
                          AIR SEA DIR/SP/G                  HT/PER
                          (F)     (DEG/KT/KT) (MB)    (MI)  (FT/S)
WAUKEGAN HARBOR            33     280/  8/ 13   N/A
HARRISON CRIB              34     290/ 17/ 20   N/A
BURNHAM HARBOR             33     290/  6/ 13   N/A
CALUMET HARBOR             33     280/ 10/ 15 1018.4R
MICHIGAN CITY              35     260/ 15/ 17   N/A
$$

ILZ025>027-034>036-040-047-049-050-058-095>099-280600-
WEST-CENTRAL ILLINOIS

CITY           SKY/WX    TMP DP  RH WIND       PRES   REMARKS
$$

ILZ028>032-037-038-041>044-048-051>054-059>061-280600-
CENTRAL ILLINOIS

CITY           SKY/WX    TMP DP  RH WIND       PRES   REMARKS
PEORIA         NOT AVBL
SPRINGFIELD    CLOUDY    33  26  75 NW12      30.19S WCI  24
TAYLORVILLE    NOT AVBL
$$

ILZ033-039-045-046-055>057-062-063-280600-
EAST-CENTRAL ILLINOIS

CITY           SKY/WX    TMP DP  RH WIND       PRES   REMARKS
CHAMPAIGN      PTCLDY    31  27  85 NW9       30.15S WCI  23
MATTOON        CLOUDY    32  29  88 NW13      30.14F WCI  22
$$

ILZ079-100>102-280600-
SOUTHWEST ILLINOIS

CITY           SKY/WX    TMP DP  RH WIND       PRES   REMARKS
BELLEVILLE     CLOUDY    36  36 100 NW10      30.19F WCI  28
CAHOKIA*       CLOUDY    36  30  79 NW14      30.21S WCI  27
$$

ILZ064>066-069>071-074>076-080>082-084>086-088>090-092>094-280600-
SOUTH-CENTRAL ILLINOIS

CITY           SKY/WX    TMP DP  RH WIND       PRES   REMARKS
CARBONDALE     CLOUDY    37  34  89 NW8       30.18F WCI  31
$$

ILZ067-068-072-073-078-083-087-091-280600-
SOUTHEAST ILLINOIS

CITY           SKY/WX    TMP DP  RH WIND       PRES   REMARKS
$$

ABBREVIATIONS USED IN REMARKS
   TC - TEMPERATURE IN CELSIUS
  WCI - WIND CHILL INDEX
   HX - HEAT INDEX
  VSB - VISIBILITY
$$




USA.gov is the U.S. government's official web portal to all federal, state and local government web resources and services.